Regional Weather Roundup
Issued by NWS

Home | Current Version | Previous Version | Graphics & Text | Print | Product List | Glossary On
Versions: 1 2 3 4 5 6 7 8 9 10 11 12 13 14 15 16 17 18 19 20 21 22 23 24 25 26 27 28 29 30 31 32 33 34 35 36 37 38 39 40 41 42 43 44 45 46 47 48 49 50
000
ASUS45 KBOI 230210
RWRID

IDAHO REGIONAL WEATHER ROUNDUP
NATIONAL WEATHER SERVICE BOISE ID
800 PM MDT TUE MAY 22 2018

NOTE: "FAIR" INDICATES FEW OR NO CLOUDS BELOW 12000 FEET
WITH NO SIGNIFICANT WEATHER AND/OR OBSTRUCTIONS TO VISIBILITY

IDZ012-014-230300-
SOUTHWEST IDAHO


CITY           SKY/WX    TMP DP  RH WIND       PRES   REMARKS
BOISE          MOSUNNY   77  49  37 NW7       29.79R
CALDWELL       MOSUNNY   76  52  43 N10       29.79R
MOUNTAIN HOME  PTSUNNY   64  57  77 SW6       29.83S
$$

IDZ016-017-230300-
SOUTHCENTRAL IDAHO


CITY           SKY/WX    TMP DP  RH WIND       PRES   REMARKS
BURLEY         CLOUDY    63  49  60 NW5       29.90R
JEROME         CLOUDY    59  52  77 N10       29.89R
TWIN FALLS     CLOUDY    58  53  84 SE9       29.89R
$$

IDZ019>023-230300-
SOUTHEAST IDAHO


CITY           SKY/WX    TMP DP  RH WIND       PRES   REMARKS
IDAHO FALLS    MOCLDY    64  44  48 SE13      29.92R
POCATELLO      MOCLDY    60  49  66 W18       29.93R THUNDER
REXBURG        MOCLDY    63  43  48 S6        29.91R
$$

IDZ006-010-011-018-031-032-230300-
CENTRAL IDAHO MOUNTAINS


CITY           SKY/WX    TMP DP  RH WIND       PRES   REMARKS
MCCALL         PTSUNNY   56  50  80 N6        29.92F
HAILEY         CLOUDY    55  52  88 NW8       29.98F
STANLEY          N/A     56  41  57 SE10      30.01R
SALMON         MOCLDY    65  47  52 N14       29.91S
CHALLIS        MOCLDY    64  46  52 NW15      29.93R
$$

IDZ002-004-006-007-026-230300-
NORTHERN IDAHO


CITY           SKY/WX    TMP DP  RH WIND       PRES   REMARKS
LEWISTON       MOSUNNY   81  52  36 CALM      29.75S
LOWELL           N/A     61  60  97 CALM      29.91R
COEUR D`ALENE  MOSUNNY   82  46  28 E7        29.82S
MULLAN PASS    MOSUNNY   59  40  49 VRB7      30.02R
$$



USA.gov is the U.S. government's official web portal to all federal, state and local government web resources and services.